Location: Alvediston
(51.0078°N, 2.0364°W)
Time: 14:36:18
(UTC+00:00)

STARLINK-1065 - Pass Details

Date: 27 February 2020
Orbit: 547 x 551 km, 53.0° (Epoch: 27 March)

Event Time Altitude Azimuth Distance (km) Brightness Sun altitude
Rises 19:37:57 0° 240° (WSW) 2,707 8.0 -18.5°
Reaches altitude 10° 19:40:11 10° 238° (WSW) 1,817 6.9 -18.9°
Maximum altitude 19:44:17 69° 156° (SSE) 589 3.5 -19.5°
Enters shadow 19:45:01 55° 99° (E) 665 3.6 -19.6°
